Torna al catalogo

COSMOS 1375 DEB

AttivoLEO
NORAD 17794·DEBRIS·🇷🇺 Russia

Lanciato Jun 6, 1982 da Plesetsk Cosmodrome

Loading…

Prossimi Passaggi (prossime 24 ore)

TLE

AggiornatoSource: Space-Track

Epoca: Sep 14, 2026, 09:45 UTC

1 17794U 82055AL  26257.40675232  .00001078  00000-0  75040-3 0  9994
2 17794  65.8166  34.6929 0053223 260.4642  99.0417 14.02210968 64759

Traccia COSMOS 1375 DEB in tempo reale con AllMySat

Download on the App Store